FW1302 Weather Reports


time (UTC)temp
C
wind
direction
speed
KPH
gust
KPH
rain 1hr
cm
rain 24hr
cm
rain mn
cm
humidity
%
barometer
mb
20260831194326 23 45 20.9 33.8 0.00 0.00 0.00 42 1019.7
20260831193326 23 46 25.7 38.6 0.00 0.00 0.00 40 1019.4
20260831193225 23 46 25.7 40.2 0.00 0.00 0.00 41 1019.5
20260831192228 23 46 24.1 40.2 0.00 0.00 0.00 41 1019.8
20260831190327 22 45 25.7 37.0 0.00 0.00 0.00 41 1020.3
20260831185328 22 46 24.1 33.8 0.00 0.00 0.00 41 1020.3
20260831183427 22 46 24.1 43.5 0.00 0.00 0.00 43 1020.7
20260831183327 22 44 20.9 30.6 0.00 0.00 0.00 44 1020.8
20260831181426 22 47 20.9 33.8 0.00 0.00 0.00 45 1020.9
20260831180327 21 47 24.1 33.8 0.00 0.00 0.00 47 1020.9
20260831175326 21 42 19.3 37.0 0.00 0.00 0.00 48 1021.2
20260831174426 21 46 24.1 35.4 0.00 0.00 0.00 47 1021.3
20260831173426 21 44 19.3 29.0 0.00 0.00 0.00 47 1021.5
20260831172428 21 44 25.7 32.2 0.00 0.00 0.00 47 1021.3
20260831171426 21 46 17.7 29.0 0.00 0.00 0.00 47 1021.5
20260831170425 20 47 16.1 27.4 0.00 0.00 0.00 48 1021.7
20260831165426 20 45 17.7 25.7 0.00 0.00 0.00 49 1021.7
20260831164427 20 68 11.3 16.1 0.00 0.00 0.00 51 1021.9
20260831163525 19 43 11.3 20.9 0.00 0.00 0.00 54 1021.9
20260831161527 17 45 37.0 48.3 0.00 0.00 0.00 69 1021.8
20260831155526 16 46 30.6 46.7 0.00 0.00 0.00 71 1022.4
20260831154528 16 46 33.8 45.1 0.00 0.00 0.00 69 1022.4
20260831153528 16 48 19.3 33.8 0.00 0.00 0.00 69 1022.7
20260831152527 16 44 24.1 33.8 0.00 0.00 0.00 69 1022.9
20260831151627 16 66 11.3 17.7 0.00 0.00 0.00 70 1023.0
20260831143726 15 48 6.4 12.9 0.00 0.00 0.00 74 1023.4
20260831142726 15 46 8.0 16.1 0.00 0.00 0.00 74 1023.4
20260831141726 15 43 19.3 29.0 0.00 0.00 0.00 74 1023.2
20260831140728 15 49 16.1 27.4 0.00 0.00 0.00 76 1023.2
20260831135827 15 43 19.3 29.0 0.00 0.00 0.00 76 1023.1
20260831134827 14 44 19.3 30.6 0.00 0.00 0.00 75 1023.2
20260831133926 14 82 8.0 14.5 0.00 0.00 0.00 76 1023.5
20260831132927 14 54 11.3 16.1 0.00 0.00 0.00 76 1023.3
20260831131927 14 93 4.8 11.3 0.00 0.00 0.00 77 1023.4
20260831130927 13 86 6.4 19.3 0.00 0.00 0.00 77 1023.5
20260831124926 14 64 8.0 17.7 0.00 0.00 0.00 78 1023.5
20260831122929 13 30 8.0 11.3 0.00 0.00 0.00 80 1023.6
20260831122026 13 18 6.4 12.9 0.00 0.00 0.00 79 1023.7
20260831121026 13 91 3.2 6.4 0.00 0.00 0.00 82 1023.8
20260831120027 13 339 3.2 8.0 0.00 0.00 0.00 84 1023.8
20260831115026 12 90 3.2 4.8 0.00 0.00 0.00 84 1023.9
20260831114027 12 90 0.0 0.0 0.00 0.00 0.00 84 1024.1
20260831113026 12 90 0.0 0.0 0.00 0.00 0.00 83 1023.8
20260831112927 12 90 0.0 0.0 0.00 0.00 0.00 84 1023.9
20260831111926 12 90 0.0 0.0 0.00 0.00 0.00 84 1024.1
20260831111025 12 90 3.2 3.2 0.00 0.00 0.00 84 1024.2
20260831110026 12 90 0.0 0.0 0.00 0.00 0.00 82 1024.1
20260831105027 13 90 0.0 0.0 0.00 0.00 0.00 83 1024.2
20260831103125 12 90 0.0 0.0 0.00 0.00 0.00 83 1024.3
20260831102127 13 90 0.0 0.0 0.00 0.00 0.00 82 1024.1
20260831101225 13 90 0.0 1.6 0.00 0.00 0.00 83 1024.4
20260831100229 12 89 3.2 4.8 0.00 0.00 0.00 83 1024.4
20260831100127 12 62 1.6 4.8 0.00 0.00 0.00 83 1024.4
20260831095126 12 112 3.2 3.2 0.00 0.00 0.00 82 1024.5
20260831094225 13 112 0.0 1.6 0.00 0.00 0.00 81 1024.5
20260831093227 13 112 3.2 4.8 0.00 0.00 0.00 82 1024.8
20260831093126 13 112 3.2 4.8 0.00 0.00 0.00 82 1024.6
20260831092127 13 67 1.6 3.2 0.00 0.00 0.00 80 1024.8
20260831090225 13 67 3.2 4.8 0.00 0.00 0.00 79 1024.8
20260831085226 13 45 0.0 0.0 0.00 0.00 0.00 79 1025.0
20260831083325 13 67 3.2 4.8 0.00 0.00 0.00 79 1025.0
20260831081327 13 67 3.2 4.8 0.00 0.00 0.00 78 1025.3
20260831080326 13 67 1.6 3.2 0.00 0.00 0.00 77 1025.4
20260831074326 13 67 0.0 0.0 0.00 0.00 0.00 76 1025.5
20260831073328 14 67 1.6 3.2 0.00 0.00 0.00 75 1025.5
20260831072327 14 67 1.6 1.6 0.00 0.00 0.00 76 1025.8
20260831071328 14 67 0.0 0.0 0.00 0.00 0.00 75 1025.7
20260831070326 14 67 0.0 0.0 0.00 0.00 0.00 73 1025.8
20260831065410 14 67 0.0 0.0 0.00 0.00 0.00 74 1025.8
20260831064411 14 67 0.0 0.0 0.00 0.00 0.00 73 1025.9
20260831061512 14 67 0.0 0.0 0.00 0.00 0.00 72 1025.9
20260831060511 15 67 0.0 0.0 0.00 0.00 0.00 72 1025.9
20260831054610 15 67 0.0 0.0 0.00 0.00 0.00 71 1026.1
20260831051611 15 67 0.0 0.0 0.00 0.00 0.00 68 1026.2
20260831050710 16 67 0.0 0.0 0.00 0.00 0.00 67 1026.3
20260831045809 16 45 0.0 0.0 0.00 0.00 0.00 66 1026.3
20260831044908 16 45 3.2 3.2 0.00 0.00 0.00 65 1026.2
20260831044811 16 45 1.6 3.2 0.00 0.00 0.00 66 1026.3
20260831041910 18 315 0.0 1.6 0.00 0.00 0.00 66 1026.3
20260831040911 18 315 3.2 6.4 0.00 0.00 0.00 64 1026.2
20260831035912 18 270 1.6 3.2 0.00 0.00 0.00 60 1026.2
20260831034911 18 225 1.6 3.2 0.00 0.00 0.00 57 1026.2
20260831033911 18 157 0.0 0.0 0.00 0.00 0.00 56 1026.2
20260831033010 19 225 8.0 9.7 0.00 0.00 0.00 57 1026.1
20260831032010 19 212 6.4 12.9 0.00 0.00 0.00 55 1026.0
20260831031108 19 211 6.4 16.1 0.00 0.00 0.00 55 1026.0
20260831030109 20 218 6.4 9.7 0.00 0.00 0.00 55 1025.9
20260831024109 20 225 11.3 14.5 0.00 0.00 0.00 51 1025.9
20260831023110 20 216 16.1 22.5 0.00 0.00 0.00 50 1025.9
20260831022208 20 225 16.1 22.5 0.00 0.00 0.00 50 1026.0
20260831021209 21 229 16.1 22.5 0.00 0.00 0.00 48 1025.9
20260831015308 21 231 11.3 22.5 0.00 0.00 0.00 47 1025.9
20260831013309 21 227 16.1 24.1 0.00 0.00 0.00 47 1026.1
20260831012408 21 224 12.9 22.5 0.00 0.00 0.00 45 1026.0
20260831011410 21 224 11.3 19.3 0.00 0.00 0.00 45 1026.0
20260831010411 21 225 16.1 20.9 0.00 0.00 0.00 45 1026.1
20260831005509 21 225 19.3 22.5 0.00 0.00 0.00 43 1026.2
20260831004511 21 228 16.1 20.9 0.00 0.00 0.00 43 1026.3
20260831003609 21 230 14.5 20.9 0.00 0.00 0.00 44 1026.3
20260831002708 21 228 14.5 24.1 0.00 0.00 0.00 43 1026.3
20260831001709 21 227 14.5 20.9 0.00 0.00 0.00 43 1026.4
20260831000711 21 226 24.1 29.0 0.00 0.00 0.00 43 1026.4
20260830235810 21 225 22.5 30.6 0.00 0.00 0.00 43 1026.5
20260830234811 21 196 22.5 30.6 0.00 0.00 0.00 43 1026.6
20260830233810 21 223 12.9 17.7 0.00 0.00 0.00 43 1026.7
20260830232908 21 221 12.9 20.9 0.00 0.00 0.00 43 1026.8
20260830231911 21 215 14.5 24.1 0.00 0.00 0.00 43 1026.8
20260830231008 21 205 14.5 19.3 0.00 0.00 0.00 45 1027.0
20260830230010 20 223 14.5 20.9 0.00 0.00 0.00 44 1027.2
20260830225008 20 215 20.9 27.4 0.00 0.00 0.00 44 1027.2
20260830224010 20 218 17.7 24.1 0.00 0.00 0.00 45 1027.4
20260830223008 20 223 22.5 32.2 0.00 0.00 0.00 45 1027.6
20260830222011 20 219 20.9 29.0 0.00 0.00 0.00 46 1027.8
20260830220109 20 211 19.3 30.6 0.00 0.00 0.00 46 1027.9
20260830215209 20 215 16.1 20.9 0.00 0.00 0.00 46 1028.1
20260830214211 20 212 19.3 27.4 0.00 0.00 0.00 47 1028.5
20260830213210 19 211 22.5 27.4 0.00 0.00 0.00 47 1028.6
20260830212211 19 215 20.9 25.7 0.00 0.00 0.00 48 1028.6
20260830211212 19 220 17.7 24.1 0.00 0.00 0.00 49 1028.9
20260830210211 18 214 16.1 22.5 0.00 0.00 0.00 49 1029.0
20260830210110 18 222 12.9 17.7 0.00 0.00 0.00 50 1028.9
20260830204109 18 215 22.5 32.2 0.00 0.00 0.00 52 1029.1
20260830203110 18 212 20.9 27.4 0.00 0.00 0.00 52 1029.4
20260830201110 18 213 20.9 27.4 0.00 0.00 0.00 51 1029.5
20260830200110 18 223 11.3 20.9 0.00 0.00 0.00 53 1029.7
20260830195110 18 212 16.1 33.8 0.00 0.00 0.00 52 1029.8